CW2840 Weather Reports


time (UTC)temp
F
wind
direction
speed
knots
gust
knots
rain 1hr
in
rain 24hr
in
rain mn
in
humidity
%
barometer
mb
20240418161844 83 178 5.2 13.9 0.00 0.00 0.00 70 1015.1
20240418160344 82 131 5.2 13.9 0.00 0.00 0.00 72 1015.0
20240418155548 81 200 3.5 12.2 0.00 0.00 0.00 77 1014.9
20240418153343 80 180 7.0 15.6 0.00 0.00 0.00 77 1014.8
20240418151843 80 202 5.2 12.2 0.00 0.00 0.00 78 1014.8
20240418151038 78 138 6.1 12.2 0.00 0.00 0.00 80 1015.2
20240418144843 78 210 4.3 7.8 0.00 0.00 0.00 82 1014.8
20240418143342 77 179 3.5 6.1 0.00 0.00 0.00 83 1014.7
20240418141842 76 176 2.6 9.6 0.00 0.00 0.00 85 1014.7
20240418140342 76 200 4.3 7.8 0.00 0.00 0.00 85 1014.6
20240418134841 76 209 2.6 4.3 0.00 0.00 0.00 86 1014.8
20240418134033 76 185 4.3 7.8 0.00 0.00 0.00 86 1014.2
20240418131841 75 203 2.6 6.1 0.00 0.00 0.00 87 1014.3
20240418130340 75 134 2.6 4.3 0.00 0.00 0.00 87 1014.2
20240418124838 75 140 2.6 4.3 0.00 0.00 0.00 87 1013.9
20240418123340 75 200 1.7 4.3 0.00 0.00 0.00 88 1014.0
20240418121839 75 206 0.9 4.3 0.00 0.00 0.00 87 1014.2
20240418121043 75 207 0.9 2.6 0.00 0.00 0.00 87 1013.9
20240418114838 75 207 0.9 2.6 0.00 0.00 0.00 87 1013.7
20240418113339 75 207 1.7 4.3 0.00 0.00 0.00 87 1013.7
20240418111838 75 188 1.7 4.3 0.00 0.00 0.00 87 1013.7
20240418110337 75 162 1.7 4.3 0.00 0.00 0.00 87 1013.7
20240418104838 75 216 1.7 6.1 0.00 0.00 0.00 87 1013.5
20240418104035 75 200 2.6 4.3 0.00 0.00 0.00 87 1013.6
20240418101836 75 219 2.6 6.1 0.00 0.00 0.00 87 1013.5
20240418100335 75 144 0.0 4.3 0.00 0.00 0.00 87 1013.1
20240418095535 75 116 1.7 4.3 0.00 0.00 0.00 88 1013.1
20240418093335 75 175 1.7 4.3 0.00 0.00 0.00 88 1013.3
20240418091835 75 179 1.7 6.1 0.00 0.00 0.00 88 1013.1
20240418090334 74 147 0.9 6.1 0.00 0.00 0.00 89 1013.0
20240418084834 74 209 2.6 7.8 0.00 0.00 0.00 89 1012.8
20240418083333 74 178 3.5 7.8 0.00 0.00 0.00 89 1012.5
20240418081833 74 203 2.6 6.1 0.00 0.00 0.00 89 1012.6
20240418080334 74 149 2.6 7.8 0.00 0.00 0.00 89 1012.4
20240418074833 74 128 3.5 7.8 0.00 0.00 0.00 89 1012.4
20240418073332 74 83 3.5 6.1 0.00 0.00 0.00 89 1012.8
20240418072546 73 135 1.7 4.3 0.00 0.00 0.00 89 1013.0
20240418070333 73 131 0.9 6.1 0.00 0.00 0.00 89 1013.2
20240418064831 73 131 2.6 6.1 0.00 0.00 0.00 89 1013.4
20240418063330 73 138 0.9 2.6 0.00 0.00 0.00 88 1013.8
20240418061830 74 138 0.9 2.6 0.00 0.00 0.00 88 1013.9
20240418060331 74 138 0.9 4.3 0.00 0.00 0.00 88 1014.3
20240418054829 74 140 0.0 6.1 0.00 0.00 0.00 88 1014.7
20240418053331 73 154 2.6 2.6 0.00 0.00 0.00 88 1014.8
20240418051830 73 155 0.0 2.6 0.00 0.00 0.00 88 1015.0
20240418050328 73 151 1.7 4.3 0.00 0.00 0.00 87 1014.9
20240418044830 74 151 0.9 4.3 0.00 0.00 0.00 87 1015.0
20240418043329 74 155 1.7 2.6 0.00 0.00 0.00 87 1015.0
20240418041827 74 152 0.0 2.6 0.00 0.00 0.00 86 1015.2
20240418040330 74 152 1.7 2.6 0.00 0.00 0.00 86 1015.1
20240418034828 74 152 0.0 4.3 0.00 0.00 0.00 85 1015.1
20240418033328 74 159 0.9 2.6 0.00 0.00 0.00 85 1015.2
20240418031827 74 203 1.7 4.3 0.00 0.00 0.00 84 1015.1
20240418031028 74 192 2.6 4.3 0.00 0.00 0.00 84 1014.9
20240418024835 74 173 1.7 4.3 0.00 0.00 0.00 83 1014.4
20240418023327 74 131 2.6 6.1 0.00 0.00 0.00 83 1014.3
20240418021827 75 162 0.0 2.6 0.00 0.00 0.00 82 1014.3
20240418020331 75 162 3.5 6.1 0.00 0.00 0.00 82 1014.2
20240418015522 75 134 1.7 9.6 0.00 0.00 0.00 81 1014.1
20240418013325 75 138 2.6 7.8 0.00 0.00 0.00 81 1013.9
20240418011826 75 123 3.5 7.8 0.00 0.00 0.00 80 1013.9
20240418010325 76 102 1.7 4.3 0.00 0.00 0.00 79 1013.8
20240418004826 76 90 3.5 6.1 0.00 0.00 0.00 78 1013.7
20240418003325 76 141 1.7 11.3 0.00 0.00 0.00 77 1013.3
20240418001823 77 131 3.5 6.1 0.00 0.00 0.00 75 1012.9
20240418000323 77 120 3.5 7.8 0.00 0.00 0.00 74 1012.8
20240417234824 78 135 3.5 7.8 0.00 0.00 0.00 73 1012.9
20240417233329 78 141 2.6 7.8 0.00 0.00 0.00 72 1012.9
20240417231822 79 130 2.6 7.8 0.00 0.00 0.00 71 1012.9
20240417230322 80 155 3.5 4.3 0.00 0.00 0.00 70 1012.9
20240417224821 80 154 2.6 6.1 0.00 0.00 0.00 71 1012.8
20240417223325 80 113 3.5 7.8 0.00 0.00 0.00 70 1012.9
20240417221821 81 183 4.3 11.3 0.00 0.00 0.00 69 1013.2
20240417220321 81 161 3.5 11.3 0.00 0.00 0.00 67 1013.3
20240417214822 82 182 4.3 11.3 0.00 0.00 0.00 66 1013.4
20240417213325 82 125 2.6 13.9 0.00 0.00 0.00 67 1013.6
20240417211822 82 137 4.3 9.6 0.00 0.00 0.00 66 1013.8
20240417210325 82 233 5.2 9.6 0.00 0.00 0.00 68 1013.9
20240417204819 81 148 3.5 7.8 0.00 0.00 0.00 68 1014.3
20240417203318 82 111 4.3 7.8 0.00 0.00 0.00 68 1014.5
20240417201818 81 164 4.3 11.3 0.00 0.00 0.00 69 1014.5
20240417200318 81 161 2.6 7.8 0.00 0.00 0.00 70 1014.2
20240417194818 80 111 3.5 7.8 0.00 0.00 0.00 72 1014.9
20240417193317 81 235 2.6 12.2 0.00 0.00 0.00 71 1015.2
20240417192512 81 87 3.5 12.2 0.00 0.00 0.00 71 1015.1
20240417190317 81 124 4.3 7.8 0.00 0.00 0.00 71 1014.8
20240417184816 81 120 5.2 9.6 0.00 0.00 0.00 72 1015.1
20240417183322 80 114 2.6 6.1 0.00 0.00 0.00 73 1015.3
20240417181810 80 140 4.3 7.8 0.00 0.00 0.00 73 1015.2
20240417181013 80 135 5.2 9.6 0.00 0.00 0.00 74 1015.3
20240417174812 79 142 2.6 7.8 0.00 0.00 0.00 75 1015.6
20240417173312 79 116 2.6 9.6 0.00 0.00 0.00 75 1015.4
20240417171810 79 199 3.5 9.6 0.00 0.00 0.00 75 1015.2
20240417170309 79 173 4.3 9.6 0.00 0.00 0.00 76 1015.2
20240417164806 79 155 2.6 7.8 0.00 0.00 0.00 78 1015.4
20240417163307 78 113 4.3 7.8 0.00 0.00 0.00 78 1015.4